Regional Weather Roundup
Issued by NWS

Home | Current Version | Previous Version | Graphics & Text | Print | Product List | Glossary On
Versions: 1 2 3 4 5 6 7 8 9 10 11 12 13 14 15 16 17 18 19 20 21 22 23 24 25 26 27 28 29 30 31 32 33 34 35 36 37 38 39 40 41 42 43 44 45 46 47 48
000
ASUS45 KBOU 301907
RWRCO

WEATHER ROUNDUP FOR COLORADO
NATIONAL WEATHER SERVICE DENVER/BOULDER CO
100 PM MDT SUN AUG 30 2015

NOTE: "FAIR" INDICATES FEW OR NO CLOUDS BELOW 12000 FEET WITH NO
SIGNIFICANT WEATHER AND/OR OBSTRUCTIONS TO VISIBILITY.

COZ001>005-013-030-031-302000-
...NORTHWEST COLORADO...

CITY           SKY/WX    TMP DP  RH WIND       PRES   REMARKS
CRAIG          MOSUNNY   84  40  21 W20       30.16S
HAYDEN         NOT AVBL
MEEKER         PTSUNNY   81  42  25 W16G22    30.20R
MOUNT WERNER   NOT AVBL
STEAMBOAT SPGS MOSUNNY   81  40  22 CALM      30.20F
WALDEN         MOSUNNY   79  34  19 W17G24    30.30F
$$

COZ006>008-011-302000-
...WEST CENTRAL VALLEYS...

CITY           SKY/WX    TMP DP  RH WIND       PRES   REMARKS
GRAND JUNCTION MOSUNNY   86  43  22 CALM      30.07F
MONTROSE       MOSUNNY   87  45  23 VRB6      30.17F
EAGLE          MOSUNNY   82  39  21 SW7       30.22F
RIFLE          MOSUNNY   86  41  20 MISG      30.13F
DELTA          MOSUNNY   90  42  19 CALM      30.12F
NUCLA          MOSUNNY   86  41  20 SW8G16    30.22F
$$

COZ017>023-064>068-302000-
...SOUTHWEST COLORADO...

CITY           SKY/WX    TMP DP  RH WIND       PRES   REMARKS
DURANGO        MOSUNNY   79  44  28 NW5       30.28F
CORTEZ         SUNNY     85  46  25 SW9       30.21F
PAGOSA SPRINGS MOSUNNY   77  40  26 SW10G16   30.36F
TELLURIDE      MOSUNNY   70  42  35 W6        30.46F
WOLF CREEK PAS PTSUNNY   54  36  50 SW13G24   30.69F
$$

COZ009-010-012-014-032>034-037-058>063-302000-
...CENTRAL COLORADO...

CITY           SKY/WX    TMP DP  RH WIND       PRES   REMARKS
ASPEN          MOSUNNY   79  37  22 VRB5      30.30F
BUENA VISTA    MOSUNNY   76  33  20 E3        30.32F
COPPER MTN     PTSUNNY   61  32  33 W16       30.66F
BERTHOUD PASS  PTSUNNY   52  41  66 W12G29    30.71S
COTTONWOOD PAS MOSUNNY   77  27  15 CALM      30.48F
GUNNISON       SUNNY     77  39  25 SW10      30.34F
KREMMLING      MOSUNNY   86  23  10 SW12G22   30.27F
LEADVILLE      MOSUNNY   70  31  23 N13       30.47F
MONARCH PASS   MOSUNNY   61  34  36 W17G24    30.76F
SALIDA         MOSUNNY   81  37  20 N8        30.35F
SUNLIGHT       PTSUNNY   64  45  48 W3        30.58F
WILKERSON PASS SUNNY     66  30  26 SW3       30.62F
$$

COZ069>075-302000-
...SAN LUIS VALLEY/SANGRE DE CRISTO MOUNTAINS...

CITY           SKY/WX    TMP DP  RH WIND       PRES   REMARKS
ALAMOSA        SUNNY     78  41  26 MISG      30.33F
LA VETA PASS   MOSUNNY   73  37  27 SW3       30.53F
SAGUACHE       NOT AVBL
$$

COZ035-036-038>040-302000-
...NORTHERN COLORADO FRONT RANGE...

CITY           SKY/WX    TMP DP  RH WIND       PRES   REMARKS
DENVER INTL AP MOSUNNY   94  30  10 W7        30.09F
DMNS CITY PARK   N/A     92  32  12 NE5G15    30.06F
AURORA         NOT AVBL
FRONT RANGE AP MOSUNNY   90  30  12 CALM      30.10F
ERIE MUNI ARPT SUNNY     94  30  10 S3        30.05F
BOULDER MUN AP SUNNY     91  37  15 S6        30.05F
CENTENNIAL     MOSUNNY   90  35  14 N10       30.12F
BROOMFIELD     MOSUNNY   93  36  13 E7        30.10F
FORT COLLINS   SUNNY     93  45  18 SE12      30.02F
LONGMONT       SUNNY     95  37  13 SE8       30.05F
$$

COZ041-046-047-076>085-087-088-302000-
...PIKES PEAK/PALMER DIVIDE AND SOUTHERN FOOTHILLS...

CITY           SKY/WX    TMP DP  RH WIND       PRES   REMARKS
COLO. SPRINGS  MOSUNNY   87  35  15 S10       30.17F
A. F. ACADEMY  NOT AVBL
ELLICOTT       NOT AVBL
FALCON         SUNNY     84  40  20 MISG      30.23F
FORT CARSON    NOT AVBL
LIMON          SUNNY     86  47  25 S13       30.12F
MONUMENT HILL  SUNNY     82  30  15 CALM      30.24F
TRINIDAD       MOSUNNY   89  40  17 NW3       30.15F
$$

COZ042>045-048>051-090-091-302000-
...NORTHEAST COLORADO...

CITY           SKY/WX    TMP DP  RH WIND       PRES   REMARKS
GREELEY ARPT   SUNNY     91  50  24 SE10      30.03F
AKRON          SUNNY     93  42  17 SW12G22   30.04F
BURLINGTON     SUNNY     87  43  21 S18G26    30.07F
WRAY           CLOUDY    96  40  14 S16G25    30.00F
STERLING       SUNNY     93  52  24 S12       29.97F
HOLYOKE        SUNNY     95  52  23 S12       30.00F
FORT MORGAN    SUNNY     92  44  18 S7        30.03F
$$

COZ086-089-092>099-302000-
...SOUTHEAST COLORADO...

CITY           SKY/WX    TMP DP  RH WIND       PRES   REMARKS
PUEBLO         SUNNY     92  48  22 SE9       30.05F
LA JUNTA       SUNNY     91  53  27 VRB5      30.06F
LAMAR          NOT AVBL
SPRINGFIELD    NOT AVBL
$$




USA.gov is the U.S. government's official web portal to all federal, state and local government web resources and services.